TITAN 3C TRANSTAGE R/B, 7324

Orbit data source: Space-Track

TITAN 3C TRANSTAGE R/B, 7324 is space debris in GEO originally from a launch on Thu, 30 May 1974 UTC launched from the Air Force Eastern Test Range (AFETR). Debris objects in space refer to the collection of defunct objects orbiting the Earth. Examples of debris include non-operational satellites, rocket bodies, and fragments generated from explosions, collisions, or faulty payload assembly.

Not visible in the next 10 days
Identifier
7324, 1974-039C
Orbit
GEO
Country
Flag of USUS
Related business
Manufacturer
Martin Marietta
Mission
Spacecraft
Bus & Motor
TRANSTAGE, Unknown motor
Mass
~1,950 kg wet, ~1,950 kg dry
Launch date (UTC)
1974-05-30 (52 years ago)
Launch vehicle
Unknown
Launch site
Air Force Eastern Test Range (AFETR)
Object type
Payload
Rocket body
Debris
Shape & HBR
Unknown
Radar Cross Section
Large (>1 m²)

Expand to show TLE details & history
Last TLE update: 5 hours ago

TLE from 5 hours ago
0 TITAN 3C TRANSTAGE R/B
1  7324U 74039C   26168.84955740 -.00000326  00000-0  00000+0 0  9995
2  7324   2.7422 259.8433 0032854  86.2550 347.1627  1.00719705119637
Epoch: 2026-06-17T20:23Z
TLE epoch observation values (Epoch: 2026-06-17T20:23:21.759Z)
Latitude
2.62119°
Longitude
121.22434°
Altitude
35,526.577 km
Speed
3.089 km/s
True Right ascension
22h 12m 39s
True Declination
2° 37' 07"
Sunlit
Object was in daylight at epoch
Visualization orbit readout
Latitude
Unknown
Longitude
Unknown
Altitude
Unknown
Speed
Unknown
Apparent Right ascension
Unknown
Apparent Declination
Unknown
Sunlit
N/A
Visualization observer readout
Local Sidereal Time
12:26:18
Azimuth
Unknown
Elevation
Unknown
Doppler factor
Unknown
Orbital elements
Apogee altitude
35,800.683 km
Perigee altitude
35,524.442 km
Semi-major axis
42,040.699 km
Eccentricity
0.00329
Inclination
2.7422°
RAAN
259.8433°
Arg. of periapsis
86.255°
True anomaly
347.07872°
Mean anomaly
347.1627°
Eccentric anomaly
347.12074°
Mean motion
0.25179 °/min
Orbital period
1,429.76 mins
BSTAR
0
Loading maneuver chart data...
Computing Atmospheric mass density...
Loading historical data...
Loading historical data...
Loading historical data...
Loading historical data...
Loading historical data...
Loading historical data...
Loading historical data...
Other satellites on launch #39 in the year 1974 (1974-05-30 UTC)

Documentation

Showing up to 5 results
|